Weather in Verkhnyaya Nechaevka

Russia / Tambov Oblast     52°59′49″N   42°45′56″E
temp.,
°C
wind,
m/s
gust,
m/s
humid.,
%
clouds,
%
prec.,
mm/h
press.,
hPa
HPBL,
m
27 february, sat
sat2700:00+1w6139082 0.1 1004384
03:00+1w7149387 0.1 1004646
06:000w71492100 0.0 1002703
09:00−1w7159198 0.2 1002674
12:00−1nw10159395 0.8 1002877
15:00−7nw8128796 1.0 1004794
18:00−9nw61190100 0.1 1008654
21:00−9nnw61191100 0.1 1010688
28 february, sun
sun2800:00−11nnw4109399 0.0 1011462
03:00−13nw499681 0.1 1013237
06:00−15nw379614 0.0 1014177
09:00−14nnw479410 0.0 1015292
12:00−12nnw359179 0.0 1016401
15:00−10nw259189 0.1 1016465
18:00−10nw2395100 0.1 101777
21:00−12n2396100 0.1 101941
1 march, mon
mon100:00−13n229666 0.0 102020
03:00−14nnw229637 0.0 102220
06:00−14n229624 0.0 102320
09:00−13n129550 0.0 102469
12:00−10nw129069 0.0 1025238
15:00−9w229282 0.0 1025203
18:00−11wsw239544 0.0 102421
21:00−10wsw349753 0.0 102450
2 march, tue
tue200:00−8sw4997100 0.1 1022185
03:00−5wsw61294100 0.1 1019398
06:00−3wsw71395100 0.2 1015524
09:00−2wsw71495100 0.5 1011574
12:000w81499100 1.4 1008755
15:000wnw61198100 2.7 1006607
18:00−1wnw51098100 0.4 1006500
21:00−1nw71496100 0.9 1007707
3 march, wed
wed300:00−3nw6139489 0.1 1008480
03:00−3nw6119488 0.3 1009658
06:00−4nw5109695 0.3 1010393
09:00−4nw7119192 0.4 1012664
12:00−4nw61091100 0.1 1013651
15:00−3nw71089100 0.1 1015782
18:00−7nw499192 0.0 1016173
21:00−7nw499573 0.1 1018200